Weather in San Carlos

Mexico     27°56′43″N   111°03′13″W
temp.,
°C
wind,
m/s
gust,
m/s
humid.,
%
clouds,
%
prec.,
mm/h
press.,
hPa
HPBL,
m
17 may, tue
tue1723:00+24se23660 0.0 101152
02:00+22ese23730 0.0 101057
05:00+22ese34720 0.0 101198
08:00+25se68480 0.0 1013522
11:00+28s79510 0.0 1013778
14:00+28s79560 0.0 1012631
17:00+27s56470 0.0 1011453
20:00+24sse23630 0.0 1011169
18 may, wed
wed1823:00+23ese23700 0.0 101368
02:00+22ese34830 0.0 1012130
05:00+21ese23810 0.0 101399
08:00+24se56560 0.0 1014495
11:00+28sse67450 0.0 1014738
14:00+28s66500 0.0 1012603
17:00+27s34450 0.0 1011379
20:00+24sse22625 0.0 1012129
19 may, thu
thu1923:00+24ese22630 0.0 101222
02:00+22ese22725 0.0 101139
05:00+21ese22790 0.0 101177
08:00+25se45610 0.0 1013481
11:00+28sse67480 0.0 1011788
14:00+28ssw55450 0.0 1009709
17:00+29ssw44360 0.0 1008585
20:00+24s23580 0.0 1009123
20 may, fri
fri2023:00+23s22610 0.0 100923
02:00+22se22670 0.0 100830
05:00+21ese33770 0.0 100889
08:00+24se57590 0.0 1010620
11:00+27sse78400 0.0 1010805
14:00+27s65440 0.0 1009625
17:00+27s44310 0.0 1009441
20:00+24sse23540 0.0 1009141
21 may, sat
sat2123:00+23se22570 0.0 101132
02:00+22ese22640 0.0 101067
05:00+21ese22600 0.0 101170
08:00+24se45480 0.0 1013473
11:00+28sse56410 0.0 1013800
14:00+28ssw45370 0.0 1012676
17:00+28sw44300 0.0 1010400
20:00+25ssw22400 0.0 101140